Time,TemperatureF,DewpointF,PressureIn,WindDirection,WindDirectionDegrees,WindSpeedMPH,WindSpeedGustMPH,Humidity,HourlyPrecipIn,Conditions,Clouds,dailyrainin,SoftwareType,DateUTC
2013-04-28 00:03:00,61.0,-99.9,-100.00,North,352,2.0,3.0,56,0.00,,,0.00,,2013-04-28 04:03:00,
2013-04-28 00:13:00,61.0,45.0,-100.00,North,352,2.0,3.0,56,0.00,,,0.00,,2013-04-28 04:13:00,
2013-04-28 00:23:00,60.0,46.0,-100.00,North,8,2.0,3.0,60,0.00,,,0.00,,2013-04-28 04:23:00,
2013-04-28 00:32:00,60.0,46.0,-100.00,North,8,2.0,3.0,60,0.00,,,0.00,,2013-04-28 04:32:00,
2013-04-28 00:43:00,60.0,46.0,-100.00,North,0,2.0,3.0,59,0.00,,,0.00,,2013-04-28 04:43:00,
2013-04-28 00:53:00,60.0,46.0,-100.00,North,0,2.0,3.0,59,0.00,,,0.00,,2013-04-28 04:53:00,
2013-04-28 01:02:00,60.0,46.0,-100.00,NNE,14,2.0,4.0,61,0.00,,,0.00,,2013-04-28 05:02:00,
2013-04-28 01:12:00,60.0,46.0,-100.00,NNE,14,2.0,4.0,61,0.00,,,0.00,,2013-04-28 05:12:00,
2013-04-28 01:22:00,59.0,48.0,-100.00,NNE,14,2.0,4.0,68,0.00,,,0.00,,2013-04-28 05:22:00,
2013-04-28 01:32:00,59.0,48.0,-100.00,NNE,14,2.0,4.0,68,0.00,,,0.00,,2013-04-28 05:32:00,
2013-04-28 01:42:00,58.0,48.0,-100.00,NE,34,3.0,5.0,69,0.00,,,0.00,,2013-04-28 05:42:00,
2013-04-28 01:52:00,58.0,48.0,-100.00,NE,34,3.0,5.0,69,0.00,,,0.00,,2013-04-28 05:52:00,
2013-04-28 02:01:00,57.0,48.0,-100.00,NNE,24,1.0,3.0,71,0.00,,,0.00,,2013-04-28 06:01:00,
2013-04-28 02:13:00,57.0,48.0,-100.00,NNE,24,1.0,3.0,71,0.00,,,0.00,,2013-04-28 06:13:00,
2013-04-28 02:21:00,56.0,48.0,-100.00,WSW,253,2.0,3.0,76,0.00,,,0.00,,2013-04-28 06:21:00,
2013-04-28 02:32:00,56.0,48.0,-100.00,WSW,253,2.0,3.0,76,0.00,,,0.00,,2013-04-28 06:32:00,
2013-04-28 02:42:00,58.0,47.0,-100.00,West,272,0.0,1.0,69,0.00,,,0.00,,2013-04-28 06:42:00,
2013-04-28 02:52:00,58.0,47.0,-100.00,West,272,0.0,1.0,69,0.00,,,0.00,,2013-04-28 06:52:00,
2013-04-28 03:02:00,58.0,48.0,-100.00,NNE,23,1.0,4.0,69,0.00,,,0.00,,2013-04-28 07:02:00,
2013-04-28 03:11:00,58.0,48.0,-100.00,NNE,23,1.0,4.0,69,0.00,,,0.00,,2013-04-28 07:11:00,
2013-04-28 03:21:00,58.0,47.0,-100.00,WNW,301,1.0,3.0,66,0.00,,,0.00,,2013-04-28 07:21:00,
2013-04-28 03:32:00,58.0,47.0,-100.00,WNW,301,1.0,3.0,66,0.00,,,0.00,,2013-04-28 07:32:00,
2013-04-28 03:42:00,58.0,47.0,-100.00,North,10,2.0,5.0,66,0.00,,,0.00,,2013-04-28 07:42:00,
2013-04-28 03:52:00,58.0,47.0,-100.00,North,10,2.0,5.0,66,0.00,,,0.00,,2013-04-28 07:52:00,
2013-04-28 04:02:00,58.0,48.0,-100.00,WNW,295,2.0,5.0,69,0.00,,,0.00,,2013-04-28 08:02:00,
2013-04-28 04:12:00,58.0,48.0,-100.00,WNW,295,2.0,5.0,69,0.00,,,0.00,,2013-04-28 08:12:00,
2013-04-28 04:21:00,58.0,48.0,-100.00,NNE,32,3.0,6.0,68,0.00,,,0.00,,2013-04-28 08:21:00,
2013-04-28 04:32:00,58.0,48.0,-100.00,NNE,32,3.0,6.0,68,0.00,,,0.00,,2013-04-28 08:32:00,
2013-04-28 04:42:00,58.0,48.0,-100.00,NNE,27,2.0,5.0,69,0.00,,,0.00,,2013-04-28 08:42:00,
2013-04-28 04:52:00,58.0,48.0,-100.00,NNE,27,2.0,5.0,69,0.00,,,0.00,,2013-04-28 08:52:00,
2013-04-28 05:01:00,58.0,48.0,-100.00,NNE,25,4.0,8.0,68,0.00,,,0.00,,2013-04-28 09:01:00,
2013-04-28 05:12:00,58.0,48.0,-100.00,NNE,25,4.0,8.0,68,0.00,,,0.00,,2013-04-28 09:12:00,
2013-04-28 05:22:00,58.0,48.0,-100.00,ENE,59,3.0,6.0,69,0.00,,,0.00,,2013-04-28 09:22:00,
2013-04-28 05:33:00,58.0,48.0,-100.00,ENE,59,3.0,6.0,69,0.00,,,0.00,,2013-04-28 09:33:00,
2013-04-28 05:42:00,58.0,48.0,-100.00,East,89,2.0,3.0,70,0.00,,,0.00,,2013-04-28 09:42:00,
2013-04-28 05:53:00,58.0,48.0,-100.00,East,89,2.0,3.0,70,0.00,,,0.00,,2013-04-28 09:53:00,
2013-04-28 06:03:00,58.0,49.0,-100.00,WSW,258,1.0,5.0,71,0.00,,,0.00,,2013-04-28 10:03:00,
2013-04-28 06:12:00,58.0,49.0,-100.00,WSW,258,1.0,5.0,71,0.00,,,0.00,,2013-04-28 10:12:00,
2013-04-28 06:23:00,58.0,49.0,-100.00,NE,41,2.0,4.0,72,0.00,,,0.00,,2013-04-28 10:23:00,
2013-04-28 06:32:00,58.0,49.0,-100.00,NE,41,2.0,4.0,72,0.00,,,0.00,,2013-04-28 10:32:00,
2013-04-28 06:42:00,57.0,49.0,-100.00,SSE,150,2.0,5.0,75,0.00,,,0.00,,2013-04-28 10:42:00,
2013-04-28 06:53:00,57.0,49.0,-100.00,SSE,150,2.0,5.0,75,0.00,,,0.00,,2013-04-28 10:53:00,
2013-04-28 07:02:00,57.0,49.0,-100.00,SSE,150,2.0,5.0,75,0.00,,,0.00,,2013-04-28 11:02:00,
2013-04-28 07:11:00,56.0,50.0,-100.00,East,99,2.0,7.0,78,0.00,,,0.00,,2013-04-28 11:11:00,
2013-04-28 07:22:00,56.0,50.0,-100.00,South,182,2.0,6.0,80,0.00,,,0.00,,2013-04-28 11:22:00,
2013-04-28 07:32:00,56.0,50.0,-100.00,South,182,2.0,6.0,80,0.00,,,0.00,,2013-04-28 11:32:00,
2013-04-28 07:42:00,56.0,50.0,-100.00,SE,144,1.0,4.0,81,0.01,,,0.00,,2013-04-28 11:42:00,
2013-04-28 07:52:00,56.0,50.0,-100.00,SE,144,1.0,4.0,81,0.01,,,0.00,,2013-04-28 11:52:00,
2013-04-28 08:02:00,56.0,50.0,-100.00,East,90,3.0,7.0,83,0.14,,,0.04,,2013-04-28 12:02:00,
2013-04-28 08:12:00,56.0,50.0,-100.00,East,90,3.0,7.0,83,0.14,,,0.04,,2013-04-28 12:12:00,
2013-04-28 08:22:00,56.0,50.0,-100.00,ENE,76,5.0,10.0,82,0.01,,,0.05,,2013-04-28 12:22:00,
2013-04-28 08:32:00,56.0,50.0,-100.00,ENE,76,5.0,10.0,82,0.01,,,0.05,,2013-04-28 12:32:00,
2013-04-28 08:42:00,55.0,50.0,-100.00,ENE,66,6.0,15.0,81,0.10,,,0.06,,2013-04-28 12:42:00,
2013-04-28 08:52:00,55.0,50.0,-100.00,ENE,66,6.0,15.0,81,0.10,,,0.06,,2013-04-28 12:52:00,
2013-04-28 09:02:00,55.0,50.0,-100.00,ENE,76,4.0,9.0,84,0.00,,,0.06,,2013-04-28 13:02:00,
2013-04-28 09:11:00,55.0,50.0,-100.00,ENE,76,4.0,9.0,84,0.00,,,0.06,,2013-04-28 13:11:00,
2013-04-28 09:21:00,55.0,49.0,-100.00,ENE,65,3.0,11.0,81,0.00,,,0.06,,2013-04-28 13:21:00,
2013-04-28 09:32:00,55.0,49.0,-100.00,ENE,65,3.0,11.0,81,0.00,,,0.06,,2013-04-28 13:32:00,
2013-04-28 09:42:00,55.0,50.0,-100.00,ESE,107,1.0,5.0,83,0.16,,,0.09,,2013-04-28 13:42:00,
2013-04-28 09:52:00,55.0,50.0,-100.00,ESE,107,1.0,5.0,83,0.16,,,0.09,,2013-04-28 13:52:00,
2013-04-28 10:02:00,55.0,49.0,-100.00,ENE,75,2.0,6.0,82,0.11,,,0.10,,2013-04-28 14:02:00,
2013-04-28 10:11:00,55.0,49.0,-100.00,ENE,75,2.0,6.0,82,0.11,,,0.10,,2013-04-28 14:11:00,
2013-04-28 10:22:00,54.0,50.0,-100.00,ENE,62,2.0,5.0,85,0.07,,,0.14,,2013-04-28 14:22:00,
2013-04-28 10:32:00,54.0,50.0,-100.00,ENE,62,2.0,5.0,85,0.07,,,0.14,,2013-04-28 14:32:00,
2013-04-28 10:42:00,54.0,51.0,-100.00,NNE,24,3.0,8.0,89,0.07,,,0.17,,2013-04-28 14:42:00,
2013-04-28 10:52:00,54.0,51.0,-100.00,NNE,24,3.0,8.0,89,0.07,,,0.17,,2013-04-28 14:52:00,
2013-04-28 11:02:00,54.0,49.0,-100.00,NNE,25,3.0,7.0,86,0.10,,,0.21,,2013-04-28 15:02:00,
2013-04-28 11:12:00,54.0,49.0,-100.00,NNE,25,3.0,7.0,86,0.10,,,0.21,,2013-04-28 15:12:00,
2013-04-28 11:21:00,54.0,50.0,-100.00,NE,49,2.0,5.0,88,0.10,,,0.27,,2013-04-28 15:21:00,
2013-04-28 11:32:00,54.0,50.0,-100.00,NE,49,2.0,5.0,88,0.10,,,0.27,,2013-04-28 15:32:00,
2013-04-28 11:42:00,54.0,50.0,-100.00,NNE,30,3.0,7.0,87,0.07,,,0.29,,2013-04-28 15:42:00,
2013-04-28 11:53:00,54.0,50.0,-100.00,NNE,30,3.0,7.0,87,0.07,,,0.29,,2013-04-28 15:53:00,
2013-04-28 12:03:00,55.0,51.0,-100.00,NE,34,4.0,7.0,87,0.04,,,0.31,,2013-04-28 16:03:00,
2013-04-28 12:13:00,55.0,51.0,-100.00,NE,34,4.0,7.0,87,0.04,,,0.31,,2013-04-28 16:13:00,
2013-04-28 12:23:00,55.0,50.0,-100.00,NE,49,5.0,8.0,84,0.03,,,0.32,,2013-04-28 16:23:00,
2013-04-28 12:33:00,55.0,50.0,-100.00,NE,49,5.0,8.0,84,0.03,,,0.32,,2013-04-28 16:33:00,
2013-04-28 12:43:00,55.0,50.0,-100.00,NE,49,5.0,8.0,84,0.03,,,0.32,,2013-04-28 16:43:00,
2013-04-28 12:52:00,55.0,50.0,-100.00,East,79,4.0,10.0,83,0.00,,,0.34,,2013-04-28 16:52:00,
2013-04-28 13:02:00,55.0,50.0,-100.00,East,89,5.0,10.0,81,0.00,,,0.34,,2013-04-28 17:02:00,
2013-04-28 13:12:00,55.0,50.0,-100.00,East,89,5.0,10.0,81,0.00,,,0.34,,2013-04-28 17:12:00,
2013-04-28 13:22:00,-999.0,51.0,-100.00,ENE,58,4.0,7.0,83,0.00,,,0.34,,2013-04-28 17:22:00,
2013-04-28 13:32:00,-999.0,51.0,-100.00,ENE,58,4.0,7.0,83,0.00,,,0.34,,2013-04-28 17:32:00,
2013-04-28 13:42:00,56.0,51.0,-100.00,NE,42,3.0,6.0,82,0.00,,,0.34,,2013-04-28 17:42:00,
2013-04-28 13:52:00,56.0,51.0,-100.00,NE,42,3.0,6.0,82,0.00,,,0.34,,2013-04-28 17:52:00,
2013-04-28 14:02:00,56.0,50.0,-100.00,East,100,4.0,9.0,80,0.01,,,0.35,,2013-04-28 18:02:00,
2013-04-28 14:12:00,56.0,50.0,-100.00,East,100,4.0,9.0,80,0.01,,,0.35,,2013-04-28 18:12:00,
2013-04-28 14:22:00,56.0,50.0,-100.00,NE,48,4.0,11.0,80,0.00,,,0.35,,2013-04-28 18:22:00,
2013-04-28 14:32:00,56.0,50.0,-100.00,NE,48,4.0,11.0,80,0.00,,,0.35,,2013-04-28 18:32:00,
2013-04-28 14:42:00,56.0,49.0,-100.00,NE,54,4.0,9.0,78,0.00,,,0.35,,2013-04-28 18:42:00,
2013-04-28 14:52:00,56.0,49.0,-100.00,NE,54,4.0,9.0,78,0.00,,,0.35,,2013-04-28 18:52:00,
2013-04-28 15:02:00,56.0,49.0,-100.00,NE,55,5.0,9.0,80,0.03,,,0.35,,2013-04-28 19:02:00,
2013-04-28 15:11:00,56.0,49.0,-100.00,NE,55,5.0,9.0,80,0.03,,,0.35,,2013-04-28 19:11:00,
2013-04-28 15:22:00,55.0,49.0,-100.00,NE,34,7.0,13.0,80,0.01,,,0.37,,2013-04-28 19:22:00,
2013-04-28 15:32:00,55.0,49.0,-100.00,NE,34,7.0,13.0,80,0.01,,,0.37,,2013-04-28 19:32:00,
2013-04-28 15:42:00,55.0,49.0,-100.00,East,95,5.0,11.0,80,0.00,,,0.37,,2013-04-28 19:42:00,
2013-04-28 15:52:00,55.0,49.0,-100.00,East,95,5.0,11.0,80,0.00,,,0.37,,2013-04-28 19:52:00,
2013-04-28 16:02:00,55.0,49.0,-100.00,SE,128,8.0,19.0,78,0.09,,,0.38,,2013-04-28 20:02:00,
2013-04-28 16:12:00,55.0,49.0,-100.00,SE,128,8.0,19.0,78,0.09,,,0.38,,2013-04-28 20:12:00,
2013-04-28 16:22:00,55.0,49.0,-100.00,ESE,112,5.0,11.0,80,0.00,,,0.38,,2013-04-28 20:22:00,
2013-04-28 16:33:00,55.0,49.0,-100.00,ESE,112,5.0,11.0,80,0.00,,,0.38,,2013-04-28 20:33:00,
2013-04-28 16:42:00,55.0,49.0,-100.00,East,79,5.0,10.0,78,0.00,,,0.38,,2013-04-28 20:42:00,
2013-04-28 16:52:00,55.0,49.0,-100.00,East,79,5.0,10.0,78,0.00,,,0.38,,2013-04-28 20:52:00,
2013-04-28 17:01:00,55.0,48.0,-100.00,East,92,6.0,22.0,78,0.00,,,0.38,,2013-04-28 21:01:00,
2013-04-28 17:12:00,55.0,48.0,-100.00,East,92,6.0,22.0,78,0.00,,,0.38,,2013-04-28 21:12:00,
2013-04-28 17:22:00,54.0,48.0,-100.00,East,95,7.0,17.0,79,0.00,,,0.38,,2013-04-28 21:22:00,
2013-04-28 17:33:00,54.0,48.0,-100.00,East,95,7.0,17.0,79,0.00,,,0.38,,2013-04-28 21:33:00,
2013-04-28 17:42:00,54.0,49.0,-100.00,ENE,58,9.0,17.0,80,0.00,,,0.38,,2013-04-28 21:42:00,
2013-04-28 17:53:00,54.0,49.0,-100.00,ENE,58,9.0,17.0,80,0.00,,,0.38,,2013-04-28 21:53:00,
2013-04-28 18:03:00,54.0,48.0,-100.00,NE,56,10.0,18.0,81,0.00,,,0.38,,2013-04-28 22:03:00,
2013-04-28 18:13:00,54.0,48.0,-100.00,NE,56,10.0,18.0,81,0.00,,,0.38,,2013-04-28 22:13:00,
2013-04-28 18:23:00,54.0,48.0,-100.00,ENE,58,8.0,14.0,81,0.00,,,0.38,,2013-04-28 22:23:00,
2013-04-28 18:34:00,54.0,48.0,-100.00,ENE,58,8.0,14.0,81,0.00,,,0.38,,2013-04-28 22:34:00,
2013-04-28 18:42:00,54.0,48.0,-100.00,NE,54,11.0,19.0,80,0.00,,,0.38,,2013-04-28 22:42:00,
2013-04-28 18:52:00,54.0,48.0,-100.00,NE,54,11.0,19.0,80,0.00,,,0.38,,2013-04-28 22:52:00,
2013-04-28 19:02:00,54.0,48.0,-100.00,ESE,104,4.0,14.0,81,0.00,,,0.38,,2013-04-28 23:02:00,
2013-04-28 19:12:00,54.0,48.0,-100.00,ESE,104,4.0,14.0,81,0.00,,,0.38,,2013-04-28 23:12:00,
2013-04-28 19:22:00,54.0,49.0,-100.00,North,350,2.0,7.0,81,0.00,,,0.38,,2013-04-28 23:22:00,
2013-04-28 19:32:00,54.0,49.0,-100.00,North,350,2.0,7.0,81,0.00,,,0.38,,2013-04-28 23:32:00,
2013-04-28 19:42:00,55.0,48.0,-100.00,East,96,6.0,11.0,76,0.00,,,0.38,,2013-04-28 23:42:00,
2013-04-28 19:52:00,55.0,48.0,-100.00,East,96,6.0,11.0,76,0.00,,,0.38,,2013-04-28 23:52:00,
2013-04-28 20:01:00,55.0,48.0,-100.00,ENE,76,5.0,10.0,77,0.00,,,0.38,,2013-04-29 00:01:00,
2013-04-28 20:11:00,55.0,48.0,-100.00,ENE,76,5.0,10.0,77,0.00,,,0.38,,2013-04-29 00:11:00,
2013-04-28 20:22:00,55.0,48.0,-100.00,NE,56,4.0,9.0,79,0.00,,,0.38,,2013-04-29 00:22:00,
2013-04-28 20:32:00,55.0,48.0,-100.00,NE,56,4.0,9.0,79,0.00,,,0.38,,2013-04-29 00:32:00,
2013-04-28 20:42:00,54.0,48.0,-100.00,ENE,59,6.0,10.0,80,0.00,,,0.38,,2013-04-29 00:42:00,
2013-04-28 20:52:00,54.0,48.0,-100.00,ENE,59,6.0,10.0,80,0.00,,,0.38,,2013-04-29 00:52:00,
2013-04-28 21:01:00,54.0,48.0,-100.00,ENE,61,6.0,12.0,79,0.00,,,0.38,,2013-04-29 01:01:00,
2013-04-28 21:12:00,54.0,48.0,-100.00,ENE,61,6.0,12.0,79,0.00,,,0.38,,2013-04-29 01:12:00,
2013-04-28 21:22:00,55.0,49.0,-100.00,ENE,59,5.0,10.0,80,0.01,,,0.38,,2013-04-29 01:22:00,
2013-04-28 21:32:00,55.0,49.0,-100.00,ENE,59,5.0,10.0,80,0.01,,,0.38,,2013-04-29 01:32:00,
2013-04-28 21:42:00,54.0,49.0,-100.00,NE,37,4.0,9.0,80,0.00,,,0.38,,2013-04-29 01:42:00,
2013-04-28 21:52:00,54.0,49.0,-100.00,NE,37,4.0,9.0,80,0.00,,,0.38,,2013-04-29 01:52:00,
2013-04-28 22:02:00,54.0,48.0,-100.00,NNE,31,2.0,6.0,80,0.00,,,0.38,,2013-04-29 02:02:00,
2013-04-28 22:11:00,54.0,48.0,-100.00,NNE,31,2.0,6.0,80,0.00,,,0.38,,2013-04-29 02:11:00,
2013-04-28 22:22:00,55.0,47.0,-100.00,ENE,73,4.0,7.0,76,0.00,,,0.38,,2013-04-29 02:22:00,
2013-04-28 22:32:00,55.0,47.0,-100.00,ENE,73,4.0,7.0,76,0.00,,,0.38,,2013-04-29 02:32:00,
2013-04-28 22:42:00,55.0,46.0,-100.00,ENE,65,3.0,8.0,72,0.00,,,0.38,,2013-04-29 02:42:00,
2013-04-28 22:52:00,55.0,46.0,-100.00,ENE,65,3.0,8.0,72,0.00,,,0.38,,2013-04-29 02:52:00,
2013-04-28 23:01:00,54.0,47.0,-100.00,WSW,248,2.0,3.0,77,0.00,,,0.38,,2013-04-29 03:01:00,
2013-04-28 23:12:00,54.0,47.0,-100.00,WSW,248,2.0,3.0,77,0.00,,,0.38,,2013-04-29 03:12:00,
2013-04-28 23:22:00,53.0,47.0,-100.00,West,270,2.0,7.0,80,0.00,,,0.38,,2013-04-29 03:22:00,
2013-04-28 23:33:00,53.0,47.0,-100.00,West,270,2.0,7.0,80,0.00,,,0.38,,2013-04-29 03:33:00,
2013-04-28 23:42:00,55.0,46.0,-100.00,NE,35,2.0,7.0,72,0.00,,,0.38,,2013-04-29 03:42:00,
2013-04-28 23:53:00,55.0,46.0,-100.00,NE,35,2.0,7.0,72,0.00,,,0.38,,2013-04-29 03:53:00,